Home   Weather   Akron   Past weeks

Flag for USA Past Weather in Akron, Ohio, USA — Yesterday and Last 2 Weeks

Now
58 °F

Overcast.


Feels Like: 56 °F
Forecast: 56 / 66 °F
Wind: 8 mph from South

Location: Akron Fulton International Airport

Current Time: Feb 22, 2017 at 7:30:25 pm

Latest Report: Feb 22, 2017 at 6:54 pm


Visibility: 10 mi

Pressure: 29.82 "Hg

Humidity: 81%

Dew Point: 52 °F

Location of AkronLocation

Past Weather in Akron — Graph

°F

Akron Temperature Yesterday

Maximum temperature yesterday: 64 °F (at 2:54 pm)
Minimum temperature yesterday: 45 °F (at 2:54 am)
Average temperature yesterday: 56 °F

High & Low Weather Summary for the Past Weeks

 TemperatureHumidityPressure
High69 °F (Feb 18, 3:54 pm)93% (Feb 12, 5:19 am)30.37 "Hg (Feb 12, 5:19 am)
Low14 °F (Feb 10, 7:54 am)32% (Feb 18, 2:54 pm)29.41 "Hg (Feb 7, 5:54 pm)
Average39 °F68%29.90 "Hg
* Reported Feb 7 5:54 pm — Feb 22 5:54 pm, Akron, Weather by CustomWeather, © 2017

Note: Actual official high and low records may vary slightly from our data, if they occured in-between our weather recording intervals... More about our weather records

Advertising

Akron Weather History for the Previous 24 Hours

Scroll right to see more
 ConditionsComfort  
Time TempWeatherWind HumidityBarometerVisibility
5:54 pm
Wed, Feb 22
59 °FOvercast.7 mph78%29.82 "Hg10 mi
4:54 pm59 °FOvercast.9 mph78%29.82 "Hg10 mi
3:54 pm60 °FOvercast.10 mph80%29.82 "Hg10 mi
3:24 pm60 °FOvercast.13 mph80%29.83 "Hg10 mi
2:54 pm60 °FOvercast.8 mph83%29.82 "Hg10 mi
1:54 pm58 °FOvercast.10 mph87%29.84 "Hg8 mi
1:34 pm58 °FMore clouds than sun.7 mph87%29.87 "Hg7 mi
1:08 pm57 °FFog.9 mph90%29.88 "Hg3 mi
11:54 am57 °FFog.9 mph90%29.89 "Hg4 mi
11:29 am56 °FFog.8 mph93%29.90 "Hg3 mi
10:54 am56 °FLight rain. Fog.7 mph90%29.90 "Hg3 mi
10:35 am56 °FFog.7 mph90%29.91 "Hg4 mi
9:57 am56 °FLight rain. Fog.9 mph90%29.92 "Hg2 mi
9:24 am55 °FFog.9 mph93%29.92 "Hg3 mi
8:54 am55 °FFog.8 mph90%29.92 "Hg4 mi
8:32 am54 °FLight rain. Fog.8 mph93%29.93 "Hg3 mi
8:08 am54 °FLight rain. Fog.6 mph93%29.94 "Hg2 mi
7:42 am55 °FLight rain. Fog.7 mph90%29.93 "Hg2 mi
7:26 am55 °FLight rain. Fog.7 mph87%29.93 "Hg4 mi
6:54 am54 °FMostly cloudy.8 mph86%29.92 "Hg10 mi
5:54 am55 °FMostly cloudy.7 mph74%29.91 "Hg10 mi
4:54 am55 °FOvercast.7 mph77%29.90 "Hg10 mi
3:54 am55 °FOvercast.No wind74%29.90 "Hg10 mi
2:54 am54 °FMostly cloudy.No wind74%29.91 "Hg10 mi
1:54 am55 °FPassing clouds.5 mph72%29.92 "Hg10 mi
12:54 am57 °FOvercast.6 mph69%29.92 "Hg10 mi
11:54 pm
Tue, Feb 21
56 °FOvercast.5 mph70%29.93 "Hg10 mi
10:54 pm58 °FOvercast.No wind67%29.94 "Hg10 mi
9:54 pm59 °FMostly cloudy.5 mph64%29.95 "Hg10 mi
8:54 pm59 °FOvercast.5 mph62%29.95 "Hg10 mi
7:54 pm60 °FOvercast.7 mph60%29.96 "Hg10 mi
Weather by CustomWeather, © 2017

See weather overviewHow to use our weather pages